GSAT0224 (GALILEO 28)

Last updated on Thu Nov 21 2024 00:02:31 GMT+0000 (Coordinated Universal Time)

1 49810U 21116B 24324.54737208 -.00000095 00000+0 00000+0 0 9997 2 49810 57.2892 357.1800 0004237 243.6316 119.7660 1.70476039 18413
UTC large
Height (km)
Speed (km/s)
/
Latitude / Longitude
Inclination (degrees)
Orbital Period (minutes)
Azimuth
Elevation
Range (km)
Doppler Factor

Next 0 passes for location: London (51.5072 / 0.1276)

Sorry there are no passes over London.